Language: 


Des rapports , des résumés tant et plus, au choix de chacun....


Données Historiques de Météogheer
Journalier Rapport pour Novembre 26, 2017 Unitée:  Impériale    Métrique   Les deux
Suivant Jour »
Journalier Hebdomadaire Mensuel Annuel Sur mesure
  Max: Min: Moyenne:
Température: 47.3 °F 31.5 °F 37.6 °F
Point de rosée: 42.8 °F 28.4 °F 35.4 °F
Humidité: 98% 71% 91%
Vent: 12.3mph 0mph 3.2mph
Rafales: 17mph - -
Vent- - West
Pression: 30.3 in 0 in -
Pluie: 0.01 in    
Historical Graphs
 
 
Données tabulaires pour Novembre 26, 2017
Heure Température Point de rosée Pression Vent Vent Rafales Humidité Pluie Taux (Horaire) Conditions
00:01 34.9 °F 33.8 °F 30.1 in West 3.6 mph 4.9 mph 93% 0 in
00:06 34.9 °F 33.8 °F 30.1 in WSW 3.1 mph 4.3 mph 93% 0 in
00:11 34.9 °F 33.8 °F 30.1 in West 2.9 mph 5.4 mph 94% 0 in
00:16 34.7 °F 33.8 °F 30.1 in Calm   5.4 mph 94% 0 in
00:21 34.5 °F 33.8 °F 30.1 in Calm   2.9 mph 93% 0 in
00:26 34.5 °F 33.8 °F 30.1 in Calm   3.8 mph 93% 0 in
00:31 34.5 °F 33.8 °F 30.1 in West 3.6 mph 5.4 mph 94% 0 in
00:36 34.5 °F 33.8 °F 30.1 in West 3.8 mph 5.4 mph 94% 0 in
00:41 34.7 °F 33.8 °F 30.1 in Calm   6 mph 94% 0 in
00:46 34.7 °F 33.8 °F 30.1 in West 4.7 mph 6 mph 94% 0 in
00:51 34.7 °F 33.8 °F 30.1 in West 3.6 mph 5.8 mph 94% 0 in
00:56 34.5 °F 33.8 °F 30.1 in WSW 3.6 mph 6 mph 94% 0 in
01:01 34.5 °F 33.8 °F 30.1 in West 3.1 mph 6 mph 94% 0 in
01:06 34.5 °F 33.8 °F 30.1 in Calm   4.7 mph 94% 0 in
01:11 34.5 °F 33.8 °F 30.1 in WSW 4 mph 5.4 mph 94% 0 in
01:16 34.3 °F 33.8 °F 30.1 in WSW 3.4 mph 5.4 mph 94% 0 in
01:21 34.2 °F 33.8 °F 30.1 in WSW 4.3 mph 4.7 mph 94% 0 in
01:26 34.2 °F 33.8 °F 30.1 in WSW 3.4 mph 4.9 mph 94% 0 in
01:32 34.2 °F 33.8 °F 30.1 in Calm   5.4 mph 94% 0 in
01:37 34.2 °F 33.8 °F 30.1 in WSW 1.3 mph 5.4 mph 95% 0 in
01:47 34 °F 33.8 °F 30.1 in West 4 mph 5.8 mph 95% 0 in
01:52 34.2 °F 33.8 °F 30.1 in West 4.9 mph 5.8 mph 95% 0 in
01:57 34.2 °F 33.8 °F 30.1 in West 4.3 mph 5.8 mph 95% 0 in
02:02 34.2 °F 33.8 °F 30.1 in West 2 mph 5.8 mph 95% 0 in
02:07 34.2 °F 33.8 °F 30.1 in West 3.1 mph 4.5 mph 95% 0 in
02:12 34 °F 33.8 °F 30.1 in WNW 3.1 mph 4.3 mph 95% 0 in
02:17 34 °F 33.8 °F 30.1 in West 2.7 mph 4.5 mph 95% 0 in
02:22 34 °F 33.8 °F 30.1 in West 1.3 mph 4.9 mph 96% 0 in
02:27 34 °F 33.8 °F 30.1 in WSW 4.9 mph 4.9 mph 96% 0 in
02:32 34.2 °F 33.8 °F 30.1 in WSW 3.1 mph 4.9 mph 96% 0 in
02:37 34.2 °F 33.8 °F 30.1 in West 2.5 mph 5.6 mph 96% 0 in
02:42 34.2 °F 33.8 °F 30.1 in West 2.5 mph 5.6 mph 96% 0 in
02:47 34.2 °F 33.8 °F 30.1 in Calm   4.9 mph 96% 0 in
02:52 34.2 °F 33.8 °F 30.1 in West 3.6 mph 4.9 mph 96% 0 in
02:57 34 °F 33.8 °F 30.1 in West 5.4 mph 6.3 mph 96% 0 in
03:02 34 °F 33.8 °F 0 in West 4.7 mph 6 mph 96% 0 in
03:07 34 °F 33.8 °F 30.1 in West 3.8 mph 6 mph 96% 0 in
03:12 34 °F 33.8 °F 30.1 in WSW 4.3 mph 4.7 mph 96% 0 in
03:17 34 °F 33.8 °F 30.1 in Calm   4.9 mph 96% 0 in
03:22 33.8 °F 33.8 °F 30.1 in WSW 4 mph 4.9 mph 96% 0 in
03:27 33.8 °F 33.8 °F 30.1 in Calm   4.7 mph 96% 0 in
03:32 33.8 °F 33.8 °F 30.1 in West 2.9 mph 4.7 mph 96% 0 in
03:37 34 °F 33.8 °F 30.1 in West 3.1 mph 4.7 mph 97% 0 in
03:42 34 °F 33.8 °F 30.1 in Calm   4.7 mph 97% 0 in
03:47 34 °F 33.8 °F 30.1 in Calm   4.7 mph 97% 0 in
03:52 33.8 °F 33.8 °F 30.1 in West 3.8 mph 4.5 mph 97% 0 in
04:02 33.6 °F 33.8 °F 30.1 in West 0.9 mph 5.8 mph 97% 0 in
04:07 33.6 °F 33.8 °F 30.1 in West 4.3 mph 5.8 mph 97% 0 in
04:12 33.8 °F 33.8 °F 30.1 in WSW 3.4 mph 5.6 mph 97% 0 in
04:17 33.8 °F 33.8 °F 30.1 in Calm   5.6 mph 97% 0 in
04:27 33.8 °F 33.8 °F 30.1 in West 3.1 mph 6 mph 98% 0 in
04:32 33.8 °F 33.8 °F 30.1 in West 3.6 mph 6 mph 98% 0 in
04:37 33.8 °F 33.8 °F 30.1 in West 4.9 mph 5.6 mph 98% 0 in
04:42 33.6 °F 33.8 °F 30.1 in WSW 5.6 mph 5.6 mph 98% 0 in
04:48 33.6 °F 33.8 °F 30.1 in Calm   5.6 mph 98% 0 in
04:53 33.6 °F 33.8 °F 30.1 in Calm   4.9 mph 98% 0 in
04:58 33.4 °F 33.8 °F 30.1 in Calm   4.3 mph 98% 0 in
05:03 33.3 °F 33.8 °F 30.1 in Calm   4.9 mph 98% 0 in
05:08 33.3 °F 33.8 °F 30.1 in WSW 3.8 mph 5.6 mph 98% 0 in
05:13 33.3 °F 33.8 °F 30.1 in Calm   5.6 mph 98% 0 in
05:18 33.3 °F 33.8 °F 30.1 in WSW 4.3 mph 5.4 mph 98% 0 in
05:23 33.1 °F 33.8 °F 30.1 in Calm   5.4 mph 98% 0 in
05:33 33.1 °F 33.8 °F 30.1 in Calm     98% 0 in
05:38 32.9 °F 33.8 °F 30.1 in Calm     98% 0 in
05:43 32.7 °F 33.8 °F 30.1 in Calm     98% 0 in
05:48 32.7 °F 33.8 °F 30.1 in Calm     98% 0 in
05:53 32.9 °F 33.8 °F 30.1 in Calm     98% 0 in
05:58 32.7 °F 33.8 °F 30.1 in Calm     98% 0 in
06:03 32.5 °F 33.8 °F 30.1 in Calm     98% 0 in
06:08 32.2 °F 32 °F 30.1 in Calm     98% 0 in
06:10 32.2 °F 32 °F 30.1 in Calm     98% 0 in
06:15 32 °F 30.2 °F 30.1 in Calm     98% 0 in
06:20 31.8 °F 30.2 °F 30.1 in Calm     98% 0 in
06:25 31.8 °F 30.2 °F 30.1 in Calm     98% 0 in
06:30 31.8 °F 30.2 °F 30.1 in Calm     98% 0 in
06:36 31.6 °F 30.2 °F 30.1 in Calm     98% 0 in
06:41 31.6 °F 30.2 °F 30.1 in Calm     98% 0 in
06:46 31.6 °F 30.2 °F 30.1 in Calm     98% 0 in
06:51 31.6 °F 30.2 °F 30.1 in Calm     98% 0 in
06:56 31.5 °F 30.2 °F 30.1 in Calm     98% 0 in
07:01 31.5 °F 30.2 °F 30.1 in Calm     98% 0 in
07:06 31.6 °F 30.2 °F 30.1 in Calm     98% 0 in
07:11 32.2 °F 32 °F 30.1 in Calm   4.3 mph 98% 0 in
07:16 32.2 °F 32 °F 30.1 in Calm   4.3 mph 98% 0 in
07:21 32 °F 30.2 °F 30.1 in Calm   1.1 mph 98% 0 in
07:26 32 °F 30.2 °F 30.2 in West 4.3 mph 4.3 mph 98% 0 in
07:31 32 °F 30.2 °F 30.2 in WSW 3.6 mph 4.3 mph 98% 0 in
07:36 32.4 °F 32 °F 30.2 in Calm   4.3 mph 98% 0 in
07:41 32.2 °F 32 °F 30.2 in Calm   4.3 mph 98% 0 in
07:46 32.4 °F 32 °F 30.2 in Calm   4 mph 98% 0 in
07:51 32.5 °F 33.8 °F 30.2 in Calm   3.6 mph 98% 0 in
07:56 32.7 °F 33.8 °F 30.2 in Calm   5.4 mph 98% 0 in
08:01 32.9 °F 33.8 °F 30.2 in Calm   5.4 mph 98% 0 in
08:06 32.9 °F 33.8 °F 30.2 in Calm   3.6 mph 98% 0 in
08:11 32.9 °F 33.8 °F 30.2 in WSW 5.8 mph 5.8 mph 98% 0 in
08:16 33.1 °F 33.8 °F 30.2 in WSW 5.4 mph 5.8 mph 98% 0 in
08:21 33.3 °F 33.8 °F 30.2 in West 4.9 mph 6.5 mph 98% 0 in
08:26 33.4 °F 33.8 °F 30.2 in West 3.6 mph 6.5 mph 98% 0 in
08:31 33.6 °F 33.8 °F 30.2 in West 3.1 mph 5.6 mph 98% 0 in
08:36 33.6 °F 33.8 °F 30.2 in Calm   5.6 mph 98% 0 in
08:41 33.3 °F 33.8 °F 30.2 in Calm   4.9 mph 98% 0 in
08:46 33.3 °F 33.8 °F 30.2 in Calm   4.5 mph 98% 0 in
08:51 33.3 °F 33.8 °F 30.2 in WSW 3.4 mph 4.7 mph 98% 0 in
08:56 33.3 °F 33.8 °F 30.2 in WSW 4.5 mph 4.7 mph 98% 0 in
09:01 33.4 °F 33.8 °F 30.2 in WSW 5.6 mph 5.6 mph 98% 0 in
09:07 33.4 °F 33.8 °F 30.2 in WSW 4.7 mph 5.8 mph 98% 0 in
09:13 33.8 °F 33.8 °F 30.2 in Calm   5.8 mph 98% 0 in
09:18 34.2 °F 33.8 °F 30.2 in WSW 1.3 mph 6.3 mph 98% 0 in
09:23 34.3 °F 33.8 °F 30.2 in WSW 3.8 mph 6.3 mph 98% 0 in
09:28 34.3 °F 33.8 °F 30.2 in WSW 3.1 mph 5.6 mph 98% 0 in
09:33 34.5 °F 33.8 °F 30.2 in Calm   5.6 mph 98% 0 in
09:38 34.9 °F 35.6 °F 30.2 in Calm   4.9 mph 98% 0 in
09:44 35.2 °F 35.6 °F 30.2 in Calm   3.8 mph 98% 0 in
09:49 35.6 °F 35.6 °F 30.2 in West 5.8 mph 5.8 mph 98% 0 in
09:54 36.3 °F 37.4 °F 30.2 in West 4.7 mph 6 mph 98% 0 in
09:59 36.5 °F 37.4 °F 30.2 in West 4 mph 6 mph 98% 0 in
10:04 36.7 °F 37.4 °F 30.2 in Calm   5.4 mph 98% 0 in
10:09 37 °F 37.4 °F 30.2 in WSW 3.4 mph 4.7 mph 98% 0 in
10:14 37.4 °F 37.4 °F 30.2 in Calm   4.7 mph 98% 0 in
10:19 37.6 °F 37.4 °F 30.2 in WSW 4.9 mph 5.6 mph 98% 0 in
10:24 38.3 °F 39.2 °F 30.2 in WSW 4.3 mph 5.6 mph 98% 0 in
10:29 38.8 °F 39.2 °F 30.2 in WSW 5.6 mph 6 mph 98% 0 in
10:34 39.2 °F 39.2 °F 30.2 in West 6.3 mph 6.3 mph 98% 0 in
10:39 39.7 °F 39.2 °F 30.2 in WSW 5.4 mph 6.5 mph 98% 0 in
10:44 40.3 °F 41 °F 30.2 in West 4 mph 7.6 mph 98% 0 in
10:49 40.8 °F 41 °F 30.2 in West 6.3 mph 8.1 mph 98% 0 in
10:54 41 °F 41 °F 30.2 in West 7.8 mph 8.5 mph 98% 0 in
10:59 41.5 °F 42.8 °F 30.2 in WSW 7.4 mph 8.5 mph 98% 0 in
11:04 42.1 °F 42.8 °F 30.2 in WSW 10.1 mph 10.1 mph 98% 0.01 in
11:09 42.4 °F 42.8 °F 30.2 in WSW 6.5 mph 10.1 mph 98% 0.01 in
11:14 43 °F 42.8 °F 30.2 in West 6.7 mph 10.1 mph 98% 0.01 in
11:19 43.2 °F 42.8 °F 30.2 in WSW 5.4 mph 8.5 mph 97% 0.01 in
11:24 43.5 °F 42.8 °F 30.2 in SW 6.3 mph 9.2 mph 97% 0.01 in
11:29 43.7 °F 42.8 °F 30.2 in West 7.4 mph 9.2 mph 95% 0.01 in
11:34 43.7 °F 42.8 °F 30.2 in WSW 6 mph 9.8 mph 94% 0.01 in
11:39 43.7 °F 42.8 °F 30.2 in West 8.1 mph 11 mph 93% 0.01 in
11:44 43.7 °F 42.8 °F 30.2 in WSW 7.6 mph 11 mph 91% 0.01 in
11:49 44.4 °F 42.8 °F 30.2 in West 10.3 mph 11.9 mph 91% 0.01 in
11:54 44.8 °F 42.8 °F 30.2 in West 10.1 mph 11.9 mph 89% 0.01 in
11:58 45 °F 42.8 °F 30.2 in WNW 4.3 mph 13.2 mph 87% 0.01 in
12:03 45.3 °F 41 °F 30.2 in WSW 7.4 mph 13.2 mph 86% 0 in
12:08 45.3 °F 41 °F 30.2 in West 10.3 mph 11.4 mph 86% 0 in
12:13 45.7 °F 41 °F 30.2 in WSW 3.4 mph 11.4 mph 84% 0 in
12:18 46 °F 41 °F 30.2 in West 8.5 mph 14.1 mph 84% 0 in
12:23 46.2 °F 41 °F 30.2 in West 7.4 mph 14.1 mph 82% 0 in
12:28 46.4 °F 42.8 °F 30.2 in WSW 7.8 mph 10.5 mph 82% 0 in
12:31 46.6 °F 41 °F 30.2 in WSW 5.8 mph 10.3 mph 81% 0 in
12:36 46.8 °F 42.8 °F 30.2 in West 3.8 mph 11 mph 82% 0 in
12:41 46.6 °F 41 °F 30.2 in WNW 6 mph 13.6 mph 79% 0 in
12:46 46.4 °F 39.2 °F 30.2 in NNE 6.3 mph 13.6 mph 76% 0 in
12:51 46.6 °F 41 °F 30.2 in WNW 4 mph 12.3 mph 77% 0 in
12:56 46.8 °F 41 °F 30.2 in WSW 10.1 mph 14.8 mph 77% 0 in
13:01 47.3 °F 41 °F 30.2 in West 10.1 mph 14.8 mph 76% 0 in
13:06 47.3 °F 41 °F 30.2 in WNW 10.3 mph 12.1 mph 74% 0 in
13:11 47.3 °F 41 °F 30.2 in NW 5.6 mph 17 mph 76% 0 in
13:16 46.9 °F 39.2 °F 30.2 in WNW 10.3 mph 17 mph 74% 0 in
13:21 46.4 °F 39.2 °F 30.2 in SW 10.1 mph 12.5 mph 72% 0 in
13:26 46.6 °F 39.2 °F 30.2 in West 7.4 mph 12.3 mph 73% 0 in
13:31 46.9 °F 39.2 °F 30.2 in West 6.3 mph 12.3 mph 74% 0 in
13:36 46.9 °F 39.2 °F 30.2 in WSW 5.6 mph 10.7 mph 74% 0 in
13:37 46.9 °F 41 °F 30.2 in West 11 mph 11 mph 75% 0 in
13:42 47.1 °F 41 °F 30.2 in West 12.1 mph 12.3 mph 75% 0 in
13:47 47.3 °F 41 °F 30.2 in WNW 6.3 mph 12.3 mph 75% 0 in
13:52 47.3 °F 39.2 °F 30.2 in West 6.3 mph 12.1 mph 73% 0 in
13:53 47.3 °F 39.2 °F 30.2 in West 6.3 mph 10.7 mph 72% 0 in
13:58 47.1 °F 39.2 °F 30.2 in WNW 8.1 mph 10.7 mph 71% 0 in
14:03 46.6 °F 39.2 °F 30.2 in West 6 mph 10.7 mph 72% 0 in
14:08 46.6 °F 39.2 °F 30.2 in WSW 2.9 mph 10.5 mph 73% 0 in
14:13 46.9 °F 39.2 °F 30.2 in WSW 5.6 mph 8.7 mph 74% 0 in
14:18 47.3 °F 41 °F 30.2 in West 8.7 mph 12.8 mph 74% 0 in
14:23 47.3 °F 39.2 °F 30.2 in West 12.1 mph 12.8 mph 73% 0 in
14:28 47.3 °F 39.2 °F 30.2 in West 12.3 mph 13.4 mph 73% 0 in
14:33 47.3 °F 39.2 °F 30.2 in WSW 10.3 mph 14.1 mph 73% 0 in
14:38 47.1 °F 39.2 °F 30.2 in WSW 5.6 mph 14.1 mph 73% 0 in
14:43 46.9 °F 39.2 °F 30.2 in West 5.8 mph 10.7 mph 71% 0 in
14:48 46.9 °F 39.2 °F 30.2 in West 10.1 mph 12.1 mph 72% 0 in
14:53 46.8 °F 39.2 °F 30.2 in West 7.8 mph 12.1 mph 73% 0 in
14:58 46.8 °F 39.2 °F 30.2 in West 7.8 mph 11.4 mph 73% 0 in
15:03 46.9 °F 39.2 °F 30.2 in WSW 8.5 mph 11.4 mph 73% 0 in
15:08 47.1 °F 39.2 °F 30.2 in West 10.7 mph 14.3 mph 73% 0 in
15:13 46.9 °F 39.2 °F 30.2 in West 8.7 mph 14.3 mph 72% 0 in
15:18 46.6 °F 39.2 °F 30.2 in WSW 5.8 mph 12.8 mph 72% 0 in
15:23 46.6 °F 39.2 °F 30.2 in West 8.5 mph 10.5 mph 73% 0 in
15:28 46.2 °F 37.4 °F 30.2 in West 7.8 mph 15.4 mph 73% 0 in
15:33 46 °F 37.4 °F 30.2 in West 7.4 mph 15.4 mph 74% 0 in
15:38 45.9 °F 37.4 °F 30.2 in West 7.6 mph 11.9 mph 74% 0 in
15:43 45.9 °F 37.4 °F 30.2 in WSW 11 mph 12.1 mph 74% 0 in
15:48 45.5 °F 39.2 °F 30.2 in West 8.5 mph 12.3 mph 75% 0 in
15:53 45.3 °F 37.4 °F 30.2 in WSW 7.6 mph 12.3 mph 75% 0 in
15:58 44.8 °F 37.4 °F 30.2 in West 5.6 mph 10.1 mph 76% 0 in
16:03 44.4 °F 37.4 °F 30.2 in West 5.8 mph 9.6 mph 76% 0 in
16:08 44.1 °F 37.4 °F 30.2 in West 7.6 mph 9.6 mph 77% 0 in
16:13 43.5 °F 37.4 °F 30.2 in West 5.6 mph 7.6 mph 77% 0 in
16:18 43.2 °F 37.4 °F 30.2 in WSW 5.6 mph 7.6 mph 78% 0 in
16:20 43.2 °F 37.4 °F 30.2 in West 5.6 mph 7.4 mph 78% 0 in
16:25 42.8 °F 37.4 °F 30.2 in West 5.6 mph 8.5 mph 79% 0 in
16:30 42.4 °F 37.4 °F 30.2 in WSW 5.6 mph 9.2 mph 80% 0 in
16:35 42.3 °F 37.4 °F 30.2 in West 7.8 mph 9.2 mph 81% 0 in
16:40 42.1 °F 37.4 °F 30.2 in West 7.8 mph 8.7 mph 82% 0 in
16:45 41.9 °F 37.4 °F 30.2 in West 7.4 mph 8.5 mph 83% 0 in
16:50 41.5 °F 37.4 °F 30.2 in WSW 5.4 mph 8.7 mph 83% 0 in
16:55 41.4 °F 37.4 °F 30.2 in WSW 7.2 mph 8.7 mph 84% 0 in
17:00 41.2 °F 37.4 °F 30.2 in West 6.3 mph 8.5 mph 84% 0 in
17:05 41 °F 37.4 °F 30.2 in WSW 5.4 mph 8.5 mph 84% 0 in
17:10 40.8 °F 37.4 °F 30.2 in West 6 mph 7.2 mph 85% 0 in
17:15 40.5 °F 37.4 °F 30.2 in WSW 5.8 mph 6.9 mph 85% 0 in
17:20 40.3 °F 37.4 °F 30.2 in West 4 mph 6.9 mph 85% 0 in
17:25 40.1 °F 37.4 °F 30.2 in WSW 3.8 mph 6 mph 86% 0 in
17:30 39.7 °F 35.6 °F 30.2 in WSW 5.8 mph 6.3 mph 86% 0 in
17:35 39.7 °F 35.6 °F 30.2 in WSW 3.4 mph 7.2 mph 86% 0 in
17:40 39.6 °F 37.4 °F 30.2 in Calm   7.2 mph 87% 0 in
17:45 39.6 °F 37.4 °F 30.2 in West 3.8 mph 4.7 mph 87% 0 in
17:50 39.4 °F 35.6 °F 30.2 in West 4.3 mph 4.7 mph 87% 0 in
17:55 39.4 °F 35.6 °F 30.2 in Calm   4.7 mph 87% 0 in
18:00 39.4 °F 35.6 °F 30.2 in WSW 3.4 mph 3.6 mph 87% 0 in
18:05 38.8 °F 35.6 °F 30.2 in Calm   3.4 mph 87% 0 in
18:11 38.8 °F 35.6 °F 30.2 in Calm   2.7 mph 87% 0 in
18:16 38.8 °F 35.6 °F 30.2 in Calm   1.3 mph 87% 0 in
18:21 38.8 °F 35.6 °F 30.2 in Calm   1.3 mph 87% 0 in
18:26 38.8 °F 35.6 °F 30.2 in Calm     87% 0 in
18:31 37.9 °F 35.6 °F 30.2 in Calm   3.6 mph 88% 0 in
18:36 37.9 °F 35.6 °F 30.2 in Calm   3.6 mph 88% 0 in
18:41 37.9 °F 35.6 °F 30.3 in Calm   3.6 mph 89% 0 in
18:42 37.9 °F 35.6 °F 30.3 in Calm   2 mph 89% 0 in
18:47 37.8 °F 35.6 °F 30.3 in Calm   3.1 mph 89% 0 in
18:52 37.6 °F 35.6 °F 30.3 in Calm   3.6 mph 89% 0 in
18:57 37.6 °F 35.6 °F 30.2 in Calm   3.6 mph 89% 0 in
19:02 37.6 °F 35.6 °F 30.2 in Calm     89% 0 in
19:07 37.6 °F 35.6 °F 30.2 in Calm     89% 0 in
19:12 36.3 °F 33.8 °F 30.3 in Calm     89% 0 in
19:17 36 °F 33.8 °F 30.3 in Calm     89% 0 in
19:22 36 °F 33.8 °F 30.3 in Calm   2.7 mph 89% 0 in
19:27 36 °F 33.8 °F 30.3 in Calm   3.1 mph 89% 0 in
19:32 36 °F 33.8 °F 30.3 in WSW 3.4 mph 3.4 mph 89% 0 in
19:37 36 °F 33.8 °F 30.3 in West 4.7 mph 4.7 mph 89% 0 in
19:42 36.9 °F 35.6 °F 30.2 in Calm   4.7 mph 93% 0 in
19:47 36.9 °F 35.6 °F 30.2 in Calm   4 mph 93% 0 in
19:52 36.9 °F 35.6 °F 30.2 in Calm   3.8 mph 92% 0 in
19:57 36.5 °F 35.6 °F 30.3 in Calm     92% 0 in
20:02 36.5 °F 35.6 °F 30.3 in Calm     91% 0 in
20:07 36.1 °F 33.8 °F 30.3 in Calm     91% 0 in
20:12 35.8 °F 33.8 °F 30.3 in Calm     91% 0 in
20:17 35.6 °F 33.8 °F 30.3 in WSW 2.5 mph 2.5 mph 91% 0 in
20:22 35.6 °F 33.8 °F 30.3 in Calm   2.5 mph 91% 0 in
20:32 35.8 °F 33.8 °F 30.2 in Calm   1.1 mph 92% 0 in
20:37 36.1 °F 35.6 °F 30.2 in West 3.6 mph 3.6 mph 93% 0 in
20:42 36.1 °F 35.6 °F 30.2 in Calm   3.6 mph 93% 0 in
20:47 35.8 °F 33.8 °F 30.2 in Calm   3.6 mph 93% 0 in
20:52 35.6 °F 33.8 °F 30.2 in Calm   3.6 mph 93% 0 in
20:57 35.6 °F 33.8 °F 30.2 in West 1.6 mph 3.6 mph 93% 0 in
21:02 36 °F 33.8 °F 30.2 in Calm   4.3 mph 93% 0 in
21:07 35.8 °F 33.8 °F 30.2 in Calm   4.3 mph 94% 0 in
21:12 35.6 °F 33.8 °F 30.2 in Calm     93% 0 in
21:17 35.8 °F 33.8 °F 30.2 in West 3.4 mph 4.7 mph 93% 0 in
21:22 35.8 °F 33.8 °F 30.2 in West 3.4 mph 4.7 mph 94% 0 in
21:27 35.8 °F 33.8 °F 30.2 in West 2.7 mph 4.3 mph 94% 0 in
21:33 35.8 °F 33.8 °F 30.2 in Calm   4.9 mph 94% 0 in
21:38 35.8 °F 33.8 °F 30.2 in West 3.1 mph 4.9 mph 94% 0 in
21:43 35.8 °F 33.8 °F 30.2 in West 1.3 mph 4.3 mph 94% 0 in
21:48 35.8 °F 33.8 °F 30.2 in Calm   3.8 mph 93% 0 in
21:53 35.4 °F 33.8 °F 30.2 in Calm   3.4 mph 93% 0 in
21:58 35.2 °F 33.8 °F 30.2 in West 0.9 mph 4 mph 93% 0 in
22:03 35.1 °F 33.8 °F 30.2 in Calm   4 mph 93% 0 in
22:08 35.1 °F 33.8 °F 30.2 in Calm   3.6 mph 93% 0 in
22:13 35.1 °F 33.8 °F 30.2 in West 4 mph 4 mph 94% 0 in
22:18 34.9 °F 33.8 °F 30.2 in Calm   4 mph 94% 0 in
22:23 34.9 °F 33.8 °F 30.2 in Calm   3.6 mph 93% 0 in
22:28 34.2 °F 33.8 °F 30.2 in Calm     93% 0 in
22:32 33.8 °F 32 °F 30.2 in Calm     92% 0 in
22:37 33.6 °F 32 °F 30.2 in Calm     92% 0 in
22:42 33.1 °F 32 °F 30.2 in Calm   2.5 mph 92% 0 in
22:47 32.9 °F 32 °F 30.2 in Calm   2.5 mph 92% 0 in
22:52 32.7 °F 30.2 °F 30.2 in Calm     92% 0 in
22:57 32.5 °F 32 °F 30.2 in Calm     93% 0 in
23:02 32.4 °F 30.2 °F 30.2 in Calm     93% 0 in
23:07 32.2 °F 30.2 °F 30.2 in Calm     93% 0 in
23:12 32.2 °F 30.2 °F 30.2 in Calm     94% 0 in
23:17 32 °F 28.4 °F 30.2 in Calm     94% 0 in
23:22 32 °F 28.4 °F 30.2 in Calm     94% 0 in
23:27 32 °F 28.4 °F 30.2 in Calm     94% 0 in
23:32 32 °F 30.2 °F 30.2 in Calm     95% 0 in
23:37 32.2 °F 32 °F 30.2 in Calm     95% 0 in
23:42 32.5 °F 32 °F 30.2 in Calm     96% 0 in
23:47 32.5 °F 32 °F 30.2 in Calm     97% 0 in
23:52 32.7 °F 32 °F 30.2 in Calm     97% 0 in
23:57 33.1 °F 33.8 °F 30.2 in Calm   3.6 mph 97% 0 in
Données Historique de Météo Turbie

Mise a jour : 22/05/2018 19:56:12
Généré par Cumulus 1.9.4 (1099)